Hourly Data Report for October 15, 2020

SHEARWATER RCS
NOVA SCOTIA
Current Station Operator: ECCC - MSC

44°37'47.000" N
63°30'48.000" W
24.00 m
8205092
71264
AAW

Download Data

Hourly Data (October 2020)
Hourly Data Report for October 15, 2020
TIME Temp Definition
°C
Dew Point Definition
°C
Rel Hum Definition
%
Wind Dir Definition
10's deg

Wind Spd Definition
km/h
Visibility Definition
km
Stn Press Definition
kPa
Hmdx Definition


Wind Chill Definition


Weather Definition


00:00 10.1 8.6 90 28 6   101.07     LegendNANA
01:00 9.8 8.4 91 28 6   101.14     LegendNANA
02:00 9.7 8.2 90 32 8   101.20     LegendNANA
03:00 7.3 6.7 96   0   101.27     LegendNANA
04:00 6.8 6.3 97 32 4   101.32     LegendNANA
05:00 5.9 5.3 96   0   101.46     LegendNANA
06:00 7.4 6.7 95 28 5   101.55     LegendNANA
07:00 6.4 5.7 95   0   101.58     LegendNANA
08:00 9.6 8.6 93 16 2   101.67     LegendNANA
09:00 11.7 8.8 82 21 2   101.73     LegendNANA
10:00 13.9 9.4 74 22 3   101.77     LegendNANA
11:00 15.1 9.2 68 15 10   101.81     LegendNANA
12:00 15.9 8.9 63 16 13   101.77     LegendNANA
13:00 16.5 7.5 55 17 12   101.75     LegendNANA
14:00 16.6 6.3 50 20 15   101.78     LegendNANA
15:00 15.8 9.1 64 18 11   101.80     LegendNANA
16:00 14.8 9.8 72 18 12   101.82     LegendNANA
17:00 13.5 9.9 79 17 10   101.84     LegendNANA
18:00 12.2 10.5 89 17 7   101.87     LegendNANA
19:00 11.7 9.9 89 18 7   101.89     LegendNANA
20:00 11.5 9.6 88 18 6   101.93     LegendNANA
21:00 11.1 9.2 88 22 5   101.98     LegendNANA
22:00 11.2 8.8 85 23 4   101.98     LegendNANA
23:00 10.1 8.7 91 19 5   101.98     LegendNANA

Notes on Data Quality.

Legend

  • E = Estimated
  • M = Missing
  • NA = Not Available*
  • [empty] = Indicates an unobserved value
Date modified: